DECAYED

STARLINK-2125, 47725 (Decayed)

Orbit data source: Space-Track

STARLINK-2125, 47725 was a payload satellite owned by SpaceX/Seattle (US) in LEO that was launched on Thu, 04 Mar 2021 UTC via an FALCON 9 launch vehicle from the Air Force Eastern Test Range (AFETR). Payload-class satellites include a variety of spacecraft equipped with specific instruments for various scientific and technological missions. These include communications satellites like Starlink; space stations such as the ISS; scientific satellites like the Hubble; Earth observation satellites from companies like Planet Labs, Umbra, and HawkEye 360; GPS; miniature CubeSats for education and research; and military/defense satellites.

Not visible in the next 10 days
Identifier
47725, 2021-017D
Orbit
Decayed
Country
Flag of USUS
Related business
Manufacturer
SpaceX/Seattle
Mission
Decayed Commercial Communications
Bus & Motor
STARLINK, Unknown motor
Mass
260 kg wet, ~248 kg dry
Launch date (UTC)
2021-03-04 (5 years ago)
Launch vehicle
FALCON 9
Launch site
Air Force Eastern Test Range (AFETR)
Object type
Payload
Rocket body
Debris
Shape & HBR
Box + 1 Pan, 10.1 m
Radar Cross Section
13.562 m², Large (>1 m²)

Expand to show TLE details & history
Last TLE update: 1 year ago

TLE from 1 year ago
0 STARLINK-2125
1 47725U 21017D   25014.77356012  .08695005  12204-4  11606-2 0  9991
2 47725  53.0345 256.2350 0007201 265.4980 216.7030 16.34610363214452
Epoch: 2025-01-14T18:33Z
TLE epoch observation values (Epoch: 2025-01-14T18:33:55.594Z)
Latitude
42.71002°
Longitude
-0.41119°
Altitude
188.101 km
Speed
7.797 km/s
True Right ascension
02h 10m 11s
True Declination
42° 31' 26"
Sunlit
Object was in full shadow at epoch
Visualization orbit readout
Latitude
Unknown
Longitude
Unknown
Altitude
Unknown
Speed
Unknown
Apparent Right ascension
Unknown
Apparent Declination
Unknown
Sunlit
N/A
Visualization observer readout
Local Sidereal Time
21:25:27
Azimuth
Unknown
Elevation
Unknown
Doppler factor
Unknown
Orbital elements
Apogee altitude
185.191 km
Perigee altitude
175.745 km
Semi-major axis
6,558.605 km
Eccentricity
0.00072
Inclination
53.0345°
RAAN
256.235°
Arg. of periapsis
265.498°
True anomaly
216.65372°
Mean anomaly
216.703°
Eccentric anomaly
216.67836°
Mean motion
4.08626 °/min
Orbital period
88.1 mins
BSTAR
0.0011606
Loading maneuver chart data...
Computing Atmospheric mass density...

Documentation

Showing up to 5 results
|